Somerville, NJ

11:17 AM EST on November 22, 2019 (GMT -0500)
Somerset

Weather History for KSMQ - September, 2019

Change the Weather History Date:

Wednesday, September 18, 2019

  Actual Average Record
Temperature  
Mean Temperature 60 °F -  
Max Temperature 75 °F 75 °F 92 °F (1972)
Min Temperature 48 °F 52 °F 33 °F (1990)
Degree Days  
Heating Degree Days 4    
Growing Degree Days 10 (Base 50)    
Moisture  
Dew Point 49 °F    
Average Humidity 71    
Maximum Humidity 93    
Minimum Humidity 37    
Precipitation  
Precipitation 0.00 in - - ()
Sea Level Pressure  
Sea Level Pressure 30.22 in    
Wind  
Wind Speed 3 mph (North)    
Max Wind Speed 12 mph    
Max Gust Speed -    
Visibility 10 miles    
Events      
Averages and records for this station are not official NWS values.
T = Trace of Precipitation, MM = Missing Value Source: NWS Daily Summary

Daily Weather History Graph

Daily Weather History Graph

Search for Another Location

Airport or City:

Astronomy

Sep. 18, 2019 Rise Set
Actual Time 6:42 AM EDT 7:02 PM EDT
Civil Twilight 6:14 AM EDT 7:30 PM EDT
Nautical Twilight 5:42 AM EDT 8:02 PM EDT
Astronomical Twilight 5:09 AM EDT 8:35 PM EDT
Moon 9:34 PM EDT (9/18) 10:43 AM EDT (9/18)
Length of Visible Light 13h 15m
Length of Day
12h 20m
Waning Gibbous, 82% of the Moon is Illuminated
Sep 18
Waning Gibbous
Sep 21
Last Quarter
Sep 28
New
Oct 5
First Quarter
Oct 13
Full

Hourly Weather History & Observations

Time (EDT) Temp. Dew Point Humidity Pressure Visibility Wind Dir Wind Speed Gust Speed Precip Events Conditions
12:53 AM 53.1 °F 50.0 °F 89% 30.14 in 10.0 mi NW 3.5 mph - N/A   Clear
1:53 AM 52.0 °F 50.0 °F 93% 30.16 in 10.0 mi NW 4.6 mph - N/A   Clear
2:53 AM 50.0 °F 48.0 °F 93% 30.16 in 10.0 mi Calm Calm - N/A   Clear
3:53 AM 48.9 °F 46.9 °F 93% 30.16 in 10.0 mi Calm Calm - N/A   Clear
4:53 AM 48.9 °F 46.9 °F 93% 30.16 in 10.0 mi Calm Calm - N/A   Clear
5:53 AM 48.9 °F 46.9 °F 93% 30.18 in 10.0 mi NW 3.5 mph - N/A   Mostly Cloudy
6:53 AM 52.0 °F 48.0 °F 86% 30.21 in 10.0 mi North - - N/A   Scattered Clouds
7:53 AM 55.0 °F 48.9 °F 80% 30.22 in 10.0 mi NW 3.5 mph - N/A   Clear
8:53 AM 61.0 °F 50.0 °F 67% 30.24 in 10.0 mi Variable 3.5 mph - N/A   Clear
9:53 AM 64.9 °F 51.1 °F 61% 30.24 in 10.0 mi Variable 6.9 mph - N/A   Clear
10:53 AM 66.9 °F 50.0 °F 54% 30.24 in 10.0 mi NNE 8.1 mph - N/A   Partly Cloudy
11:53 AM 69.1 °F 48.0 °F 47% 30.23 in 10.0 mi NNE 5.8 mph - N/A   Scattered Clouds
12:53 PM 71.1 °F 48.9 °F 45% 30.22 in 10.0 mi North - - N/A   Scattered Clouds
1:53 PM 70.0 °F 46.9 °F 44% 30.22 in 10.0 mi Variable 5.8 mph - N/A   Scattered Clouds
2:53 PM 70.0 °F 46.9 °F 44% 30.22 in 10.0 mi Variable 4.6 mph - N/A   Mostly Cloudy
3:53 PM 72.0 °F 46.9 °F 41% 30.22 in 10.0 mi ENE 6.9 mph - N/A   Scattered Clouds
4:53 PM 73.0 °F 45.0 °F 37% 30.21 in 10.0 mi NE 11.5 mph - N/A   Clear
5:53 PM 71.1 °F 46.9 °F 42% 30.22 in 10.0 mi Variable 5.8 mph - N/A   Clear
6:53 PM 64.9 °F 48.9 °F 56% 30.22 in 10.0 mi East 3.5 mph - N/A   Clear
7:53 PM 59.0 °F 51.1 °F 75% 30.24 in 10.0 mi Calm Calm - N/A   Clear
8:53 PM 55.0 °F 51.1 °F 86% 30.27 in 10.0 mi Calm Calm - N/A   Clear
9:53 PM 53.1 °F 50.0 °F 89% 30.29 in 10.0 mi Calm Calm - N/A   Clear
10:53 PM 52.0 °F 50.0 °F 93% 30.30 in 10.0 mi Calm Calm - N/A   Clear
11:53 PM 50.0 °F 48.0 °F 93% 30.31 in 10.0 mi WNW 3.5 mph - N/A   Clear